Waarnemingen

Advertentie
Mijn weer
Emden, Duitsland (10200): temperatuur & dauwpunt: 14.10.2018 22:00:00 - 20.10.2018 22:00:00 (CEST)Emden, Duitsland (10200): temperatuur 5cm & temperatuur -5cm: 14.10.2018 22:00:00 - 20.10.2018 22:00:00 (CEST)Emden, Duitsland (10200): temperatuur -20cm & temperatuur -100cm: 14.10.2018 22:00:00 - 20.10.2018 22:00:00 (CEST)Emden, Duitsland (10200): windsnelheid & windstoten: 14.10.2018 22:00:00 - 20.10.2018 22:00:00 (CEST)Emden, Duitsland (10200): windrichting: 14.10.2018 22:00:00 - 20.10.2018 22:00:00 (CEST)Emden, Duitsland (10200): luchtdruk: 14.10.2018 22:00:00 - 20.10.2018 22:00:00 (CEST)Emden, Duitsland (10200): zicht: 14.10.2018 22:00:00 - 20.10.2018 22:00:00 (CEST)Emden, Duitsland (10200): Zonneschijnduur: 14.10.2018 22:00:00 - 20.10.2018 22:00:00 (CEST)Emden, Duitsland (10200): neerslag: 14.10.2018 22:00:00 - 20.10.2018 22:00:00 (CEST)
Datum & Tijd tt [°C] td [°C] tt 5cm [°C] tt -5cm [°C] tt -20cm [°C] tt -100cm [°C] ff [km/u] ff [kn] fx [km/u] fx [kn] dd ppp [hPa] vv [km] sd [min] rr [mm]
20.10.2018 22:00:00 11,9 10,3 10,8 11,2 12,8 15,0 5 3 14 7 WZW 1029,8 17 0 0,0
20.10.2018 21:00:00 11,6 10,2 10,8 11,0 12,9 15,0 6 4 12 7 WZW 1029,9 15 0 0,0
20.10.2018 20:00:00 10,3 9,3 4,3 11,4 12,9 15,0 5 3 9 5 W 1030,0 12 0 0,0
20.10.2018 19:00:00 11,0 9,4 5,7 12,4 12,8 15,0 6 3 14 8 W 1029,5 17 0 0,0
20.10.2018 18:00:00 13,4 10,1 11,9 13,6 12,7 15,0 8 5 27 15 W 1029,3 24 26 0,0
20.10.2018 17:00:00 14,8 10,5 15,0 14,1 12,5 15,0 16 9 27 14 W 1029,6 33 1 0,0
20.10.2018 16:00:00 15,0 10,1 15,4 14,3 12,3 15,0 20 11 31 17 W 1029,8 30 6 0,0
20.10.2018 15:00:00 15,0 9,8 15,7 14,3 12,1 15,0 19 10 30 16 W 1029,5 38 2 0,0
20.10.2018 14:00:00 15,0 9,6 16,1 13,9 11,9 15,0 19 10 31 17 W 1029,9 45 9 0,0
20.10.2018 13:00:00 14,4 9,2 15,6 13,1 11,8 15,0 16 9 26 14 WZW 1030,2 39 2 0,0
20.10.2018 12:00:00 13,9 8,3 17,2 12,2 11,7 15,0 15 8 26 14 WZW 1030,0 51 50 0,0
20.10.2018 11:00:00 11,4 7,1 12,6 10,4 11,7 15,0 11 6 19 10 WZW 1029,8 47 46 0,0
20.10.2018 10:00:00 9,6 6,2 9,4 9,2 11,7 15,0 9 5 16 8 WZW 1029,4 34 6 0,0
20.10.2018 09:00:00 9,0 5,5 8,2 8,8 11,7 15,0 7 4 14 8 ZW 1029,1 39 0 0,0
20.10.2018 08:00:00 8,8 5,0 8,1 8,7 11,8 15,0 9 5 14 8 ZZW 1028,6 40 0 0,0
20.10.2018 07:00:00 8,9 5,2 8,4 8,3 11,9 15,0 7 4 13 7 ZW 1028,5 42 0 0,0
20.10.2018 06:00:00 7,8 4,9 7,0 7,9 12,0 15,0 5 3 11 6 ZW 1028,5 42 0 0,0
20.10.2018 05:00:00 7,1 4,6 5,7 7,2 12,2 15,0 6 3 10 6 WZW 1028,2 42 0 0,0
20.10.2018 04:00:00 6,2 4,3 0,6 6,9 12,3 15,0 6 3 8 4 ZZW 1027,6 48 0 0,0
20.10.2018 03:00:00 3,4 3,1 -2,4 7,1 12,5 15,0 5 3 7 4 WZW 1028,0 22 0 0,0
20.10.2018 02:00:00 2,8 1,9 -2,4 7,6 12,7 15,0 4 2 6 3 WZW 1027,7 25 0 0,0
20.10.2018 01:00:00 4,1 3,8 -1,5 8,1 12,9 15,0 4 2 11 6 ZW 1027,8 16 0 0,0
20.10.2018 00:00:00 3,3 2,5 -2,4 8,3 13,1 15,0 3 2 4 2 ZW 1027,6 24 0 0,0
19.10.2018 23:00:00 4,1 3,9 -1,9 9,0 13,2 15,0 4 2 6 3 ZZO 1027,3 3,7 0 0,0
19.10.2018 22:00:00 4,9 4,0 -0,2 9,8 13,3 15,0 0 0 4 2 N 1027,4 25 0 0,0
19.10.2018 21:00:00 5,9 3,5 2,1 10,6 13,4 15,0 2 1 6 3 WNW 1027,0 39 0 0,0
19.10.2018 20:00:00 7,7 4,6 4,8 11,4 13,4 15,0 4 2 8 5 N 1026,6 44 0 0,0
19.10.2018 19:00:00 8,6 4,9 5,1 12,2 13,4 15,0 2 1 8 4 NO 1026,2 46 0 0,0
19.10.2018 18:00:00 11,5 5,4 7,7 13,6 13,2 15,0 3 2 6 3 ONO 1025,7 56 48 0,0
19.10.2018 17:00:00 12,3 4,2 13,1 14,8 13,1 15,0 3 2 11 6 NNO 1025,8 13 51 0,0
19.10.2018 16:00:00 12,9 3,8 15,4 15,1 12,8 15,0 6 4 11 6 ONO 1026,0 75 60 0,0
19.10.2018 15:00:00 12,8 4,0 15,0 14,9 12,6 15,0 5 3 16 9 O 1026,6 64 58 0,0
19.10.2018 14:00:00 12,5 4,0 16,2 13,6 12,4 15,0 6 3 14 8 NO 1026,8 52 36 0,0
19.10.2018 13:00:00 11,9 4,2 13,3 13,0 12,3 15,0 7 4 14 8 OZO 1027,0 22 32 0,0
19.10.2018 12:00:00 12,1 4,7 14,5 12,0 12,3 15,0 8 4 14 8 OZO 1027,0 50 54 0,0
19.10.2018 11:00:00 10,6 6,5 12,3 9,9 12,3 15,0 8 4 12 6 ZO 1027,4 52 58 0,0
19.10.2018 10:00:00 8,1 5,7 9,1 7,5 12,5 15,0 7 4 9 5 ZZO 1027,2 49 53 0,0
19.10.2018 09:00:00 3,1 2,7 -1,3 6,4 12,7 15,0 3 2 5 3 OZO 1027,1 0,2 21 0,0
19.10.2018 08:00:00 2,1 1,6 -3,5 6,7 12,9 15,0 0 0 5 3 N 1026,9 54 0 0,0
19.10.2018 07:00:00 2,9 2,8 -2,3 7,0 13,1 15,0 4 2 5 3 O 1026,6 0,6 0 0,0
19.10.2018 06:00:00 2,8 2,5 -2,8 7,3 13,3 15,0 0 0 4 2 N 1026,8 24 0 0,0
19.10.2018 05:00:00 3,3 2,9 -1,6 7,5 13,6 15,0 0 0 5 3 N 1026,8 46 0 0,0
19.10.2018 04:00:00 3,0 2,5 -2,2 7,8 13,8 15,0 4 2 6 4 NNO 1026,7 34 0 0,0
19.10.2018 03:00:00 3,7 3,5 -1,8 8,1 14,0 15,0 4 2 6 4 N 1026,7 43 0 0,0
19.10.2018 02:00:00 3,3 2,4 -1,6 8,6 14,3 15,0 5 3 6 3 N 1026,8 48 0 0,0
19.10.2018 01:00:00 3,9 3,1 -1,7 9,1 14,5 14,9 4 2 5 3 N 1027,0 47 0 0,0
19.10.2018 00:00:00 4,8 4,0 -1,2 9,6 14,7 14,9 3 1 6 4 NNW 1027,2 47 0 0,0
18.10.2018 23:00:00 4,3 2,9 -0,3 10,2 15,0 14,9 4 2 10 5 ONO 1027,2 41 0 0,0
18.10.2018 22:00:00 6,9 4,7 0,1 10,9 15,2 14,9 8 5 9 5 N 1027,1 63 0 0,0
18.10.2018 21:00:00 8,0 5,9 2,7 11,7 15,3 14,9 8 4 9 5 NNW 1026,7 55 0 0,0
18.10.2018 20:00:00 8,7 5,8 4,3 12,7 15,4 14,9 8 4 11 6 N 1026,7 56 0 0,0
18.10.2018 19:00:00 10,4 7,1 7,5 14,0 15,4 14,9 10 5 15 8 N 1026,1 50 0 0,0
18.10.2018 18:00:00 12,1 7,8 10,8 15,2 15,4 14,9 9 5 24 13 NNO 1025,7 62 20 0,0
18.10.2018 17:00:00 13,5 8,1 13,3 16,2 15,3 14,9 20 11 28 15 NNO 1025,6 55 15 0,0
18.10.2018 16:00:00 14,7 7,7 18,0 16,6 15,2 14,9 16 9 29 16 NNO 1025,5 66 24 0,0
18.10.2018 15:00:00 14,7 8,0 15,9 16,8 15,1 14,9 17 9 30 16 NO 1025,4 58 42 0,0
18.10.2018 14:00:00 14,8 7,8 18,0 16,0 15,1 14,9 17 9 37 20 NO 1025,4 66 13 0,0
18.10.2018 13:00:00 14,7 8,5 16,2 16,0 15,0 14,9 23 13 32 17 N 1025,3 67 18 0,0
18.10.2018 12:00:00 14,6 8,1 17,0 15,1 15,0 14,9 20 11 33 18 N 1025,0 55 45 0,0
18.10.2018 11:00:00 14,0 9,6 15,4 14,0 15,0 14,9 16 9 24 13 N 1024,6 36 26 0,0
18.10.2018 10:00:00 12,9 10,1 12,4 13,3 15,1 14,9 13 7 22 12 N 1024,2 34 22 0,0
18.10.2018 09:00:00 12,5 10,5 11,0 13,3 15,1 14,9 16 8 23 12 NNW 1023,6 29 0 0,0
18.10.2018 08:00:00 13,0 12,4 12,5 13,5 15,2 14,9 10 5 21 11 N 1022,9 24 0 0,0
18.10.2018 07:00:00 13,1 12,6 12,9 13,5 15,2 14,9 11 6 21 11 N 1022,4 18 0 0,2
18.10.2018 06:00:00 13,3 12,7 13,0 13,2 15,4 14,9 14 7 19 11 NNW 1022,2 33 0 0,1
18.10.2018 05:00:00 12,0 11,9 11,8 12,7 15,5 14,9 5 3 8 4 WNW 1022,1 6 0 0,0
18.10.2018 04:00:00 10,2 10,2 6,7 12,2 15,7 14,9 4 2 5 3 W 1021,8 4,0 0 0,0
18.10.2018 03:00:00 10,6 10,6 5,4 12,6 15,8 14,9 4 2 8 4 W 1021,9 6 0 0,0
18.10.2018 02:00:00 11,1 10,7 6,8 13,1 16,0 14,9 5 3 8 4 WZW 1021,7 11 0 0,0
18.10.2018 01:00:00 11,6 10,9 7,2 13,5 16,1 14,9 4 2 6 3 W 1021,6 20 0 0,0
18.10.2018 00:00:00 11,3 10,5 7,4 14,0 16,3 14,9 4 2 6 4 W 1021,4 28 0 0,0
17.10.2018 23:00:00 11,3 10,8 7,4 14,5 16,4 14,9 4 2 6 4 W 1021,1 25 0 0,0
17.10.2018 22:00:00 12,5 11,2 8,7 15,5 16,4 14,9 4 2 7 4 WNW 1021,2 22 0 0,0
17.10.2018 21:00:00 14,2 12,5 13,2 16,2 16,5 14,9 6 4 11 6 WNW 1020,8 26 0 0,0
17.10.2018 20:00:00 15,1 12,6 14,5 16,6 16,5 14,9 6 3 13 7 NW 1020,3 29 0 0,0
17.10.2018 19:00:00 15,4 12,3 14,8 17,2 16,4 14,9 9 5 15 8 NW 1019,8 31 0 0,0
17.10.2018 18:00:00 16,3 12,5 16,4 18,1 16,3 14,9 11 6 20 11 NW 1019,6 35 0 0,0
17.10.2018 17:00:00 16,7 12,4 17,1 19,0 16,1 14,9 16 8 22 12 NNW 1019,4 33 16 0,0
17.10.2018 16:00:00 18,0 13,6 19,7 19,8 15,9 14,9 11 6 17 9 NNW 1019,0 19 42 0,0
17.10.2018 15:00:00 19,0 14,2 23,3 19,7 15,7 14,9 11 6 18 10 NW 1018,8 19 57 0,0
17.10.2018 14:00:00 18,7 13,8 22,0 18,7 15,5 14,9 9 5 19 10 NW 1018,9 16 60 0,0
17.10.2018 13:00:00 17,8 13,5 20,1 17,6 15,4 14,9 9 5 16 8 W 1018,9 12 49 0,0
17.10.2018 12:00:00 17,3 12,4 19,4 16,7 15,4 14,9 10 5 15 8 W 1018,9 12 48 0,0
17.10.2018 11:00:00 15,9 11,2 18,3 14,8 15,4 14,9 8 5 14 8 ZW 1018,5 13 60 0,0
17.10.2018 10:00:00 14,5 11,0 15,4 13,2 15,5 14,9 6 3 10 5 Z 1018,2 12 22 0,0
17.10.2018 09:00:00 11,8 10,3 8,5 13,1 15,6 14,9 4 2 12 6 Z 1018,0 8 0 0,0
17.10.2018 08:00:00 13,9 11,0 11,7 13,4 15,8 14,9 5 3 17 9 ZZO 1017,6 13 0 0,0
17.10.2018 07:00:00 15,0 11,1 13,3 13,6 15,9 14,9 10 5 19 10 ZZW 1017,5 17 0 0,0
17.10.2018 06:00:00 15,2 11,3 13,7 13,6 16,0 14,9 7 4 12 7 Z 1017,4 21 0 0,0
17.10.2018 05:00:00 13,0 10,9 11,5 13,8 16,1 14,9 10 6 13 7 ZZO 1017,3 13 0 0,0
17.10.2018 04:00:00 13,0 10,9 11,2 14,0 16,3 14,9 10 6 14 8 ZZO 1017,4 14 0 0,0
17.10.2018 03:00:00 13,3 10,8 12,1 14,4 16,4 14,9 11 6 14 8 ZZO 1017,7 15 0 0,0
17.10.2018 02:00:00 14,3 11,2 12,3 14,6 16,5 14,9 7 4 11 6 ZZO 1018,0 19 0 0,0
17.10.2018 01:00:00 14,1 11,0 12,4 14,8 16,7 14,9 11 6 17 9 ZZO 1018,0 19 0 0,0
17.10.2018 00:00:00 16,0 11,9 12,4 15,0 16,8 14,9 7 4 14 7 Z 1018,1 25 0 0,0
16.10.2018 23:00:00 15,7 12,3 12,6 15,6 16,9 14,9 6 3 13 7 Z 1018,3 22 0 0,0
16.10.2018 22:00:00 13,9 12,1 10,2 16,3 17,0 14,9 6 4 8 4 ZO 1018,6 15 0 0,0
16.10.2018 21:00:00 15,9 12,4 11,6 16,9 17,0 14,9 6 3 11 6 ZZO 1018,5 26 0 0,0
16.10.2018 20:00:00 17,9 13,0 14,9 17,8 17,0 14,9 8 4 10 5 ZO 1018,5 30 0 0,0
16.10.2018 19:00:00 20,5 13,1 17,0 18,7 16,9 14,9 6 4 12 7 ZZW 1018,3 12 7 0,0
16.10.2018 18:00:00 21,4 13,5 19,9 19,9 16,7 14,9 6 3 17 9 Z 1018,0 41 28 0,0
16.10.2018 17:00:00 23,0 14,3 24,6 20,5 16,5 14,9 9 5 17 9 Z 1017,7 34 41 0,0
16.10.2018 16:00:00 22,5 13,8 24,0 21,3 16,2 14,9 11 6 18 10 Z 1017,9 42 60 0,0
16.10.2018 15:00:00 21,5 13,9 23,7 20,9 16,0 14,9 10 5 16 8 Z 1018,0 42 59 0,0
16.10.2018 14:00:00 20,3 14,2 23,6 20,0 15,8 14,9 8 4 11 6 Z 1018,2 19 60 0,0
16.10.2018 13:00:00 19,3 14,7 22,4 17,8 15,7 14,9 4 2 10 6 Z 1018,4 12 21 0,0
16.10.2018 12:00:00 17,1 14,3 18,3 16,7 15,7 14,9 6 4 15 8 W 1018,3 8 0 0,0
16.10.2018 11:00:00 16,7 14,2 17,9 15,9 15,7 14,9 10 5 15 8 W 1018,1 9 0 0,0
16.10.2018 10:00:00 15,4 13,4 15,1 15,1 15,7 14,9 6 3 9 5 W 1017,8 8 6 0,0
16.10.2018 09:00:00 15,7 13,5 15,2 14,8 15,8 14,9 5 3 11 6 WZW 1017,3 9 4 0,0
16.10.2018 08:00:00 15,8 13,6 15,1 14,7 15,8 14,9 9 5 15 8 ZZW 1016,6 10 0 0,0
16.10.2018 07:00:00 15,8 13,5 15,0 14,7 15,9 14,9 9 5 14 8 ZZW 1016,3 10 0 0,0
16.10.2018 06:00:00 15,6 13,3 14,0 14,7 16,0 14,9 7 4 11 6 ZZW 1016,1 11 0 0,0
16.10.2018 05:00:00 15,7 13,2 14,6 14,8 16,1 14,9 6 4 11 6 ZZW 1015,8 10 0 0,0
16.10.2018 04:00:00 14,5 12,2 12,2 14,8 16,1 14,8 5 3 7 4 Z 1015,8 11 0 0,0
16.10.2018 03:00:00 14,3 12,9 12,6 15,2 16,2 14,8 4 2 6 3 Z 1015,8 13 0 0,0
16.10.2018 02:00:00 14,3 13,0 12,9 15,2 16,3 14,8 5 3 7 4 ZZO 1015,2 14 0 0,0
16.10.2018 01:00:00 13,8 12,2 13,0 15,5 16,4 14,8 4 2 6 4 ZO 1015,0 15 0 0,0
16.10.2018 00:00:00 14,7 12,8 12,7 15,8 16,5 14,8 4 2 5 3 W 1015,1 19 0 0,0
15.10.2018 23:00:00 15,7 12,9 13,8 16,1 16,5 14,8 5 3 6 3 WZW 1014,8 23 0 0,0
15.10.2018 22:00:00 16,1 13,0 13,6 16,3 16,6 14,8 5 3 10 6 W 1014,4 28 0 0,0
15.10.2018 21:00:00 16,4 13,1 13,9 16,8 16,6 14,8 5 3 14 7 WNW 1013,9 39 0 0,0
15.10.2018 20:00:00 17,7 13,2 13,7 17,6 16,5 14,8 5 3 7 4 Z 1013,5 56 0 0,0
15.10.2018 19:00:00 20,5 13,3 17,9 18,5 16,4 14,8 6 3 16 9 ZZW 1013,1 15 0 0,0
15.10.2018 18:00:00 21,2 13,0 20,5 19,2 16,3 14,8 8 5 16 9 Z 1012,7 50 0 0,0
15.10.2018 17:00:00 21,8 12,7 21,7 20,0 16,0 14,8 9 5 28 15 Z 1012,2 65 39 0,0
15.10.2018 16:00:00 22,8 12,0 24,3 20,5 15,8 14,8 15 8 27 15 ZZW 1011,8 57 60 0,0
15.10.2018 15:00:00 22,9 11,7 24,8 20,6 15,5 14,8 16 9 24 13 Z 1011,7 60 60 0,0
15.10.2018 14:00:00 22,5 11,2 24,7 19,7 15,2 14,8 16 9 23 13 Z 1011,8 68 60 0,0
15.10.2018 13:00:00 21,4 10,7 23,7 18,2 15,1 14,8 15 8 23 13 Z 1011,8 41 55 0,0
15.10.2018 12:00:00 19,6 11,2 21,9 16,4 15,0 14,8 14 7 21 11 Z 1011,7 34 51 0,0
15.10.2018 11:00:00 16,7 11,2 18,5 14,2 15,1 14,8 7 4 13 7 ZZO 1011,6 38 9 0,0
15.10.2018 10:00:00 13,6 10,1 13,4 13,0 15,2 14,8 9 5 14 8 ZZO 1011,4 25 44 0,0
15.10.2018 09:00:00 11,4 9,4 11,1 12,1 15,4 14,8 8 5 13 7 ZO 1011,1 19 29 0,0
15.10.2018 08:00:00 10,3 8,9 8,9 12,1 15,5 14,8 11 6 13 7 ZO 1010,7 18 0 0,0
15.10.2018 07:00:00 9,6 9,1 5,2 12,4 15,7 14,8 5 3 9 5 ZO 1010,2 17 0 0,0
15.10.2018 06:00:00 10,0 8,8 5,9 12,8 15,9 14,8 4 2 8 4 ZZO 1010,1 19 0 0,0
15.10.2018 05:00:00 10,9 9,3 6,6 13,3 16,0 14,8 5 3 10 5 ZO 1009,9 30 0 0,0
15.10.2018 04:00:00 13,5 10,0 8,7 13,9 16,2 14,8 6 3 15 8 ZZO 1009,8 40 0 0,0
15.10.2018 03:00:00 14,1 10,1 9,2 14,3 16,3 14,8 8 4 14 8 ZZO 1009,7 48 0 0,0
15.10.2018 02:00:00 14,7 10,1 12,5 14,8 16,4 14,8 13 7 16 8 ZZO 1009,7 51 0 0,0
15.10.2018 01:00:00 15,5 10,4 13,4 15,3 16,5 14,8 13 7 16 9 ZZO 1009,5 60 0 0,0
15.10.2018 00:00:00 17,5 11,2 15,2 15,7 16,6 14,8 12 6 16 8 ZZO 1009,4 61 0 0,0
14.10.2018 23:00:00 17,9 11,6 15,8 16,2 16,7 14,8 12 6 16 9 ZZO 1009,2 75 0 0,0
14.10.2018 22:00:00 18,0 11,3 16,4 16,5 16,7 14,8 11 6 16 9 ZZO 1008,9 72 0 0,0

tt = temperatuur
td = dauwpunt
tt 5cm = temperatuur 5cm
tt -5cm = temperatuur -5cm
tt -20cm = temperatuur -20cm
tt -100cm = temperatuur -100cm
ff = windsnelheid
fx = windstoten
dd = windrichting
ppp = luchtdruk
vv = zicht
sd = Zonneschijnduur
rr = neerslag

Weerstations in de omgeving